Location: Castle
(40.7167°S, 175.9500°E)
Time: 08:40:26
(UTC+00:00)

Tiangong - Visible Passes

Search period start: 11 October 2024 00:00
Search period end: 21 October 2024 00:00
Orbit: 372 x 377 km, 41.5° (Epoch: 10 October)

Date Brightness Start Highest point End Pass type
(mag) Time Alt. Az. Time Alt. Az. Time Alt. Az.
12 Oct -0.4 07:32:06 10° NNW 07:34:14 17° NNE 07:34:26 17° NE visible
13 Oct -1.5 08:04:37 10° NW 08:07:16 40° N 08:07:16 40° N visible
14 Oct -0.9 07:02:05 10° NNW 07:04:45 25° NNE 07:07:25 10° E visible
14 Oct -0.6 08:37:59 10° WNW 08:39:49 32° WNW 08:39:49 32° WNW visible
15 Oct -2.1 07:34:58 10° WNW 07:38:05 60° NNE 07:40:05 20° E visible
15 Oct 0.9 09:11:32 10° W 09:12:06 14° W 09:12:06 14° W visible
16 Oct -2.2 08:08:20 10° W 08:11:30 82° S 08:12:09 53° ESE visible
17 Oct -2.2 07:05:08 10° WNW 07:08:17 79° NNE 07:11:27 10° E visible
17 Oct -1.0 08:41:46 10° W 08:44:03 43° WSW 08:44:03 43° WSW visible
18 Oct -2.1 07:38:26 10° W 07:41:36 75° S 07:43:49 18° E visible
18 Oct 0.8 09:15:05 10° W 09:15:47 15° W 09:15:47 15° W visible
19 Oct -2.2 08:11:43 10° W 08:14:53 86° SSE 08:15:26 57° E visible
20 Oct -2.0 07:08:15 10° W 07:11:25 75° S 07:14:34 10° E visible
20 Oct -0.7 08:44:53 10° W 08:46:57 34° WNW 08:46:57 34° WNW visible
